Regional Weather Roundup
Issued by NWS Lake Charles, LA

Home | Current Version | Previous Version | Text Only | Print | Product List | Glossary On
Versions: 1 2 3 4 5 6 7 8 9 10 11 12 13 14 15 16 17 18 19 20 21 22 23 24 25 26 27 28 29 30 31 32 33 34 35 36 37 38 39 40 41 42 43 44 45 46 47 48
000
ASUS44 KLCH 291210
RWRLCH
RWRLCH
REGIONAL WEATHER ROUNDUP
NATIONAL WEATHER SERVICE LAKE CHARLES LA
700 AM CDT FRI MAY 29 2015

Note: "fair" indicates few or no clouds below 12,000 feet with no
significant weather and/or obstructions to visibility.


ACROSS SOUTHEAST TEXAS

CITY           SKY/WX    TMP DP  RH WIND       PRES   REMARKS
BEAUMONT       CLOUDY    77  75  93 S6        30.00R
BEAUMONT CITY    N/A     75  74  96 CALM      30.00S
ORANGE         PTSUNNY   76  73  93 S3        30.02R
JASPER         CLOUDY    75  74  96 CALM      30.03R FOG
$$

ACROSS CENTRAL LOUISIANA

CITY           SKY/WX    TMP DP  RH WIND       PRES   REMARKS
LEESVILLE      CLOUDY    74  72  96 S7        30.01R
FULLERTON      CLOUDY    76  73  91 CALM      30.00R FOG
ALEXANDRIA INT PTCLDY    73  72  96 SE3       30.00R FOG
ESLER FIELD    MOCLDY    68  68 100 CALM      30.04R
DERIDDER       CLOUDY    73  72  95 CALM      30.04R FOG
OAKDALE        FOG       70  69  96 CALM      30.02S VSB 1/2
OPELOUSAS        N/A    N/A N/A N/A SE5       30.03R
$$

ACROSS SOUTHWEST AND SOUTH CENTRAL LOUISIANA

CITY           SKY/WX    TMP DP  RH WIND       PRES   REMARKS
SULPHUR        MOSUNNY   77  75  95 CALM      30.02R
LAKE CHARLES   PTCLDY    77  75  93 SW3       30.01R
CHENNAULT INT  PTCLDY    73  73 100 CALM      30.02R
CAMERON PHI    PTSUNNY   81  73  78 S13       30.04R
DEQUINCY         N/A     71  71 100 CALM      30.02R
JENNINGS         N/A     74  73  98 CALM      30.02R
LAFAYETTE      PTCLDY    75  73  93 CALM      30.03R
NEW IBERIA     PTCLDY    75  74  96 SE3       30.03R
ABBEVILLE        N/A     74  73  98 CALM      30.03R
PATTERSON      CLEAR     73  72  94 SE3       30.06R
SALT POINT       N/A     76  74  93 CALM      30.02R
$$

SELECTED SITES ACROSS THE REGION

CITY           SKY/WX    TMP DP  RH WIND       PRES   REMARKS
HOUSTON BUSH   LGT RAIN  73  68  84 SW5G17    30.00R
HOUSTON HOBBY  LGT RAIN  72  66  83 W9        29.99R FOG
GALVESTON      CLOUDY    80  76  87 S10       30.00R
COLLEGE STAT   CLOUDY    67  65  93 S10       29.92F
CONROE         TSTM      68  66  93 E5        29.97F FOG
HUNTSVILLE     RAIN      69  67  93 S3        29.96F
LUFKIN         CLOUDY    77  72  84 SE8       29.97S
SHREVEPORT     CLOUDY    71  69  93 SE6       29.99R
MONROE         MOSUNNY   72  70  93 S3        30.03R
NATCHEZ MS     CLOUDY    72  70  94 S6        30.06R
BATON ROUGE    PTSUNNY   73  72  96 E5        30.05R
N.O. INTL ARPT MOSUNNY   76  71  85 SE6       30.04S
SLIDELL        SUNNY     72  71  97 CALM      30.06R
$$

MARINE REPORTS

STATION/POSITION TIME  TEMP    WIND        PRES    VSBY  WAVE
                       AIR SEA DIR/SP/G                  HT/PER
                 (UTC) (F)     (DEG/KT/KT) (MB)    (MI)  (FT/S)
BUOY 30 S HIGH I 1150   80 80  180/ 12/ 14 1015.2R         3/ 5
SEA RIM ST PARK  1200   80     190/  9/ 13 1016.4R
PORT ARTHUR      1100      77  190/  5/  9 1015.6R
SABINE PASS N    1100   79 79  200/ 10/ 14 1015.6R
TEXAS POINT      NOT AVBL
CALCASIEU PASS   1100   80 82  210/ 17/ 20   N/A
LK CHARLES BEACH 1100   75 77              1016.0R
MARSH ISLAND     1100   81     180/ 10/ 13   N/A           0
FRESH WATER LOCK 1100   79 81  160/  7/ 12   N/A
AMERADA PASS     1100   77 76  130/  2/  4 1016.5R
$$


USA.gov is the U.S. government's official web portal to all federal, state and local government web resources and services.